Location: ?
(35.4214°N, 139.3011°E)
Time: 22:41:21
(UTC+00:00)

SPOT 1/Viking Rocket - Pass Details

Date: 14 July 2020
Orbit: 778 x 793 km, 98.5° (Epoch: 10 August)

Event Time Altitude Azimuth Distance (km) Brightness Sun altitude
Exits shadow 11:49:37 36° 132° (SE) 1,223 4.0 -19.0°
Maximum altitude 11:51:29 56° 73° (ENE) 927 3.7 -19.2°
Drops below altitude 10° 11:56:33 10° 357° (N) 2,349 6.7 -19.9°
Sets 11:58:54 0° 353° (N) 3,284 7.7 -20.2°
